Location: Moscow
(55.7500°N, 37.5830°E)
Time: 13:00:04
(UTC+03:00)

Envisat - Visible Passes

Search period start: 23 October 2021 00:00
Search period end: 02 November 2021 00:00
Orbit: 764 x 766 km, 98.2° (Epoch: 22 October)

Date Brightness Start Highest point End Pass type
(mag) Time Alt. Az. Time Alt. Az. Time Alt. Az.
23 Oct 5.5 04:35:03 10° NE 04:39:01 22° E 04:42:56 10° SE visible
23 Oct 3.0 06:13:30 10° NNE 06:18:36 74° WNW 06:23:39 10° SSW visible
24 Oct 6.2 03:59:43 10° ENE 04:01:35 12° E 04:03:27 10° ESE visible
24 Oct 3.6 05:36:38 10° NNE 05:41:42 61° ESE 05:46:43 10° S visible
25 Oct 4.8 05:00:00 10° NNE 05:04:37 33° E 05:09:12 10° SSE visible
25 Oct 3.2 06:38:56 10° N 06:43:51 49° WNW 06:48:44 10° SW visible
25 Oct 6.0 18:03:08 10° SW 18:06:40 19° W 18:10:12 10° NW visible
26 Oct 5.7 04:23:48 10° NE 04:27:20 19° E 04:30:51 10° SE visible
26 Oct 3.0 06:01:56 10° NNE 06:07:05 88° W 06:12:10 10° SSW visible
27 Oct 3.9 05:25:08 10° NNE 05:30:07 51° E 05:35:04 10° S visible
27 Oct 6.4 18:30:30 10° WSW 18:32:24 12° W 18:34:18 10° WNW visible
28 Oct 5.1 04:48:36 10° NNE 04:52:59 28° E 04:57:19 10° SSE visible
28 Oct 3.0 06:27:20 10° N 06:32:21 59° WNW 06:37:21 10° SW visible
28 Oct 5.8 17:51:03 10° SW 17:54:58 22° W 17:58:56 10° NW visible
29 Oct 5.9 04:12:40 10° NE 04:15:38 15° E 04:18:36 10° ESE visible
29 Oct 3.2 05:50:24 10° NNE 05:55:32 78° ESE 06:00:37 10° SSW visible
30 Oct 4.3 05:13:40 10° NNE 05:18:31 42° E 05:23:20 10° SSE visible
30 Oct 6.1 18:17:53 10° WSW 18:20:40 15° W 18:23:28 10° NW visible
31 Oct 5.3 04:37:15 10° NE 04:41:19 23° E 04:45:21 10° SE visible
31 Oct 2.9 06:15:46 10° NNE 06:20:51 71° WNW 06:25:55 10° SSW visible
31 Oct 5.5 17:39:03 10° SSW 17:43:19 27° W 17:47:36 10° NW visible
01 Nov 6.1 04:01:43 10° NE 04:03:55 13° E 04:06:06 10° ESE visible
01 Nov 3.4 05:38:53 10° NNE 05:43:58 65° ESE 05:49:01 10° S visible
